{"data":{"norad_id":57080,"intl_designator":"2023-088AJ","name":"STARLINK-6243","alt_names":[],"object_type":"PAYLOAD","status":"ACTIVE","operator":null,"country":"US","launch_date":"2023-06-22","launch_site_code":"AFWTR","launch_vehicle":null,"mission":null,"orbit_class":"UNKNOWN","rcs_meters":null,"size_class":null,"mass_kg":null,"dimensions":null,"purposes":["comms"],"wikipedia_slug":null,"has_3d_model":false,"image_url":null,"decayed_at":null,"tle_current":{"epoch":"2026-09-19T19:14:34.793376Z","epoch_age_seconds":181283,"freshness":"STALE","line1":"1 57080U 23088AJ  26262.80179159 -.00000006  00000+0  93152-5 0  9990","line2":"2 57080  43.0021  80.1953 0001029 266.0159  94.0575 15.27577918180011","mean_motion":15.27577918,"eccentricity":0.0001029,"inclination_deg":43.0021,"raan_deg":80.1953,"arg_perigee_deg":266.0159,"mean_anomaly_deg":94.0575,"bstar":9.3152e-6,"rev_number":18001,"period_min":94.266877193756,"perigee_km":482.34931361294,"apogee_km":483.76134699452,"semimajor_km":6861.1923303037,"source":"CELESTRAK","updated_at":"2026-09-21T09:00:33.554483Z"}}}